Weather History for PAQT - October, 2012

Change the Weather History Date:

Saturday, October 6, 2012

  Actual Average (PAKU) Record (PAKU)
Temperature  
Mean Temperature 36 °F -  
Max Temperature 44 °F 24 °F 43 °F (1989)
Min Temperature 30 °F 18 °F 4 °F (1986)
Degree Days  
Heating Degree Days 28    
Moisture  
Dew Point 30 °F    
Average Humidity 82    
Maximum Humidity 89    
Minimum Humidity 68    
Precipitation  
Precipitation 0.00 in - - ()
Sea Level Pressure  
Sea Level Pressure 29.90 in    
Wind  
Wind Speed 8 mph (SSW)    
Max Wind Speed 14 mph    
Max Gust Speed -    
Visibility 10 miles    
Events      
Averages and records for this station are not official NWS values.
T = Trace of Precipitation, MM = Missing Value Source: NWS Daily Summary

Daily Weather History Graph

Daily Weather History Graph

Search for Another Location

Airport or City:

Trip Planner

Search our weather history database for the weather conditions in past years. The results will help you decide how hot, cold, wet, or windy it might be!

Date:

Astronomy

Oct. 06, 2012 Rise Set
Actual Time 8:43 AM AKDT 6:58 PM AKDT
Civil Twilight 7:41 AM AKDT 8:00 PM AKDT
Nautical Twilight 6:29 AM AKDT 9:11 PM AKDT
Astronomical Twilight 5:08 AM AKDT 10:31 PM AKDT
Moon No Moon Rise No Moon Set
Length of Visible Light 12h 18m
Length of Day
10h 15m
Waning Gibbous, 64% of the Moon is Illuminated
Oct 6
Waning Gibbous
Oct 7
Last Quarter
Oct 15
New
Oct 21
First Quarter
Oct 29
Full

Hourly Weather History & Observations

Time (AKDT) Temp. Windchill Dew Point Humidity Pressure Visibility Wind Dir Wind Speed Gust Speed Precip Events Conditions
12:53 AM 32.0 °F 24.8 °F 28.9 °F 88% 29.86 in 10.0 mi South 8.1 mph - N/A   Clear
2:53 AM 30.0 °F 24.1 °F 27.0 °F 88% 29.86 in 10.0 mi SSE 5.8 mph - N/A   Partly Cloudy
3:53 AM 30.9 °F 23.5 °F 28.0 °F 89% 29.85 in 10.0 mi South 8.1 mph - N/A   Partly Cloudy
4:53 AM 32.0 °F 25.6 °F 28.0 °F 85% 29.85 in 10.0 mi South 6.9 mph - N/A   Overcast
5:53 AM 34.0 °F 28.8 °F 28.9 °F 82% 29.84 in 10.0 mi South 5.8 mph - N/A   Mostly Cloudy
6:53 AM 35.1 °F 29.3 °F 30.0 °F 82% 29.84 in 10.0 mi South 6.9 mph - N/A   Overcast
7:53 AM 34.0 °F 29.8 °F 30.0 °F 85% 29.84 in 10.0 mi South 4.6 mph - N/A   Overcast
8:53 AM 34.0 °F 28.8 °F 28.9 °F 82% 29.83 in 10.0 mi South 5.8 mph - N/A   Partly Cloudy
9:53 AM 35.1 °F 29.3 °F 30.0 °F 82% 29.84 in 10.0 mi South 6.9 mph - N/A   Overcast
10:53 AM 35.1 °F 28.6 °F 30.0 °F 82% 29.85 in 10.0 mi SSW 8.1 mph - N/A   Overcast
11:53 AM 35.1 °F 29.3 °F 30.9 °F 85% 29.86 in 10.0 mi South 6.9 mph - N/A   Overcast
12:53 PM 36.0 °F 29.6 °F 32.0 °F 86% 29.87 in 10.0 mi South 8.1 mph - N/A   Scattered Clouds
1:53 PM 37.9 °F 32.1 °F 33.1 °F 83% 29.88 in 10.0 mi SSW 8.1 mph - N/A   Mostly Cloudy
2:53 PM 39.0 °F 32.3 °F 33.1 °F 79% 29.90 in 10.0 mi SW 10.4 mph - N/A   Overcast
3:53 PM 41.0 °F 36.4 °F 34.0 °F 76% 29.92 in 10.0 mi WSW 6.9 mph - N/A   Overcast
4:53 PM 43.0 °F 36.4 °F 33.1 °F 68% 29.93 in 10.0 mi WSW 12.7 mph - N/A   Overcast
5:53 PM 39.9 °F 33.4 °F 32.0 °F 73% 29.94 in 10.0 mi SW 10.4 mph - N/A   Mostly Cloudy
6:53 PM 36.0 °F 29.6 °F 30.0 °F 79% 29.95 in 10.0 mi SW 8.1 mph - N/A   Clear
7:53 PM 36.0 °F 27.5 °F 30.0 °F 79% 29.96 in 10.0 mi WSW 12.7 mph - N/A   Clear
8:53 PM 36.0 °F 27.1 °F 28.9 °F 76% 29.98 in 10.0 mi WSW 13.8 mph - N/A   Clear
9:53 PM 35.1 °F 25.9 °F 30.0 °F 82% 29.99 in 10.0 mi WSW 13.8 mph - N/A   Clear
10:53 PM 30.9 °F 23.5 °F 28.0 °F 89% 30.01 in 10.0 mi South 8.1 mph - N/A   Clear
11:53 PM 30.0 °F 21.7 °F 27.0 °F 88% 30.03 in 10.0 mi South 9.2 mph - N/A   Clear